Hourly Weather Roundup
Issued by NWS Central Illinois

Home | Current Version | Previous Version | Text Only | Print | Product List | Glossary On
Versions: 1 2 3 4 5 6 7 8 9 10 11 12 13 14 15 16 17 18 19 20 21 22 23 24 25 26 27 28 29 30 31 32 33 34 35 36 37 38 39 40 41 42 43 44 45 46 47 48 49 50
000
NZUS43 KILX 040810
HWRILX

AREA WEATHER ROUNDUP
NATIONAL WEATHER SERVICE, LINCOLN IL
300 AM CDT WED MAY 04 2016


CITY           SKY/WX    TMP DP  RH WIND       PRES   REMARKS
BLOOMINGTON    RAIN      53  48  83 W14G20    29.71R
CHAMPAIGN      LGT RAIN  54  45  71 SW15      29.69F
DANVILLE       LGT RAIN  54  44  70 SW16      29.67F
DECATUR        CLOUDY    56  43  61 SW16      29.70F
EFFINGHAM      MOCLDY    52  46  79 S7        29.78F
FLORA          PTCLDY    52  45  77 SW8       29.80F
GALESBURG      CLOUDY    49  47  93 S5        29.68F
JACKSONVILLE   DRIZZLE   55  45  67 SW14      29.70F
LACON          CLOUDY    49  47  93 CALM      29.66F
LAWRENCEVILLE  MOCLDY    51  45  79 SW7       29.79F
LITCHFIELD     CLOUDY    53  42  66 SW14      29.75F
$$


CITY           SKY/WX    TMP DP  RH WIND       PRES   REMARKS
LINCOLN        CLOUDY    57  46  67 SW8       29.67F
MACOMB         CLOUDY    54  47  78 W12       29.70F
MATTOON        CLOUDY    53  43  68 SW10      29.72F
MT CARMEL AP   MOCLDY    52  45  76 SW8       29.79F
OLNEY-NOBLE AP MOCLDY    52  45  76 S3        29.79F
PARIS          MOCLDY    51  45  80 SW8       29.73F
PEORIA         LGT RAIN  50  47  89 NE8       29.72S
PONTIAC        RAIN      52  50  95 NW14G23   29.70R
RANTOUL        LGT RAIN  54  48  82 SW15      29.67F
ROBINSON       MOCLDY    51  44  77 SW10      29.78F
SPRINGFIELD    CLOUDY    57  44  62 SW10      29.69F
TAYLORVILLE    CLOUDY    54  45  71 S16       29.72F
$$

...REGIONAL REPORTS...


CITY           SKY/WX    TMP DP  RH WIND       PRES   REMARKS
CHICAGO O`HARE RAIN      50  47  89 N7        29.64F FOG
KANKAKEE       LGT RAIN  52  48  86 W10G20    29.65F
MOLINE         CLEAR     49  46  90 NW3       29.69R
MOUNT STERLING LGT RAIN  55  45  67 SW10      29.69F
MOUNT VERNON   CLEAR     46  41  81 S3        29.82F
PITTSFIELD     CLOUDY    57  44  61 SW10      29.73F
QUINCY         LGT RAIN  55  44  66 SW14G23   29.70F
ROCKFORD       CLOUDY    47  44  90 NW7       29.68R
$$


CITY           SKY/WX    TMP DP  RH WIND       PRES   REMARKS
BURLINGTON     MOCLDY    55  46  71 NE7       29.69R
CEDAR RAPIDS   CLEAR     47  45  93 N6        29.71R
DES MOINES     PTCLDY    55  35  47 NW10      29.78S
KIRKSVILLE     CLOUDY    59  42  53 W14G22    29.75F
OTTUMWA        CLEAR     56  42  59 NW14      29.71S
ST LOUIS       MOCLDY    55  42  61 SW12      29.79F
$$


CITY           SKY/WX    TMP DP  RH WIND       PRES   REMARKS
TERRE HAUTE    PTCLDY    53  43  68 SW9       29.74F
EVANSVILLE     CLEAR     48  43  82 SW7       29.83F
INDIANAPOLIS   CLOUDY    52  44  74 SW12      29.72F
LAFAYETTE      CLOUDY    52  44  74 SW7       29.69F
MADISON        CLEAR     45  43  93 N8        29.69R
MILWAUKEE      CLOUDY    49  46  90 N9        29.65S
$$






USA.gov is the U.S. government's official web portal to all federal, state and local government web resources and services.